Погода в Лугах

Россия / Новгородская область     58°55′43″N   32°05′46″E
темп.,
°C
ветер,
м/с
пор.,
м/с
влажн.,
%
обл.,
%
осадки,
мм/ч
давл.,
гПа
погр.,
м
17 мая, пн
пн1700:00+11ю01935 0.0 101210
03:00+11вюв22954 0.0 101315
06:00+12вюв259569 0.0 1013110
09:00+17вюв3577100 0.0 1013392
12:00+22юв465199 0.0 10121518
15:00+24вюв4843100 0.0 10102264
18:00+22вюв4958100 0.0 1009655
21:00+18вюв41377100 0.2 1007451
18 мая, вт
вт1800:00+17вюв51588100 0.6 1006524
03:00+16юв51493100 0.6 1005428
06:00+17юв41392100 0.0 1005439
09:00+21юв51071100 0.0 1004741
12:00+25ююв5105561 0.0 10041569
15:00+28ююв51044100 0.0 10032878
18:00+22ю41268100 0.1 1002471
21:00+17ююз2594100 4.0 1005105
19 мая, ср
ср1900:00+16вюв259697 1.9 100594
03:00+15юв3119565 2.2 1004254
06:00+16юв4129497 0.1 1004428
09:00+20ююв4107538 0.1 1004978
12:00+22ююв61370100 1.0 10051844
15:00+20ю4979100 2.3 1005929
18:00+17ююз289134 1.6 1004298
21:00+16ююв3119132 3.2 1006343
20 мая, чт
чт2000:00+14ююв26986 0.1 1006148
03:00+12юз119940 0.1 100825
06:00+14ссз119687 0.0 100897
09:00+16ссв4591100 0.0 1007425
12:00+18с248565 0.3 1007390
15:00+19св267899 0.8 1004218
18:00+19в2790100 6.1 1001367
21:00+17вюв31195100 12.0 1000503
21 мая, пт
пт2100:00+14ююв411952 0.4 1001551
03:00+12вюв412965 0.4 1001380
06:00+13юв4992100 0.1 10001011
09:00+12юв5982100 0.3 10001227
12:00+13ююв41074100 0.0 10011231
15:00+14ю4870100 0.0 10001132
18:00+13ююз367568 0.0 999855
21:00+10ю3888100 0.2 999481